Regional Weather Roundup
Issued by NWS

Home | Current Version | Previous Version | Text Only | Print | Product List | Glossary Off
Versions: 1 2 3 4 5 6 7 8 9 10 11 12 13 14 15 16 17 18 19 20 21 22 23 24 25 26 27 28 29 30 31 32 33 34 35 36 37 38 39 40 41 42 43 44 45 46 47 48 49 50

000
ASUS43 KIND 121759
RWRIN

WEATHER ROUNDUP FOR INDIANA
NATIONAL WEATHER SERVICE INDIANAPOLIS IN
100 PM EST FRI FEB 12 2016

NOTE: "FAIR" INDICATES FEW OR NO CLOUDS BELOW 12,000 FEET WITH NO
SIGNIFICANT WEATHER AND/OR OBSTRUCTIONS TO VISIBILITY.

* - STATION DOES NOT REPORT WEATHER SUCH AS PRECIPITATION OR FOG.

+ - STATION NOT QUALITY CONTROLLED BY THE NATIONAL WEATHER SERVICE.
    USE DATA WITH CAUTION...ESPECIALLY DEWPOINT AND RELATIVE
    HUMIDITY OBSERVATIONS.

INZ001>003-010>013-019-020-121900-
NORTHWEST INDIANA

CITY           SKY/WX    TMP DP  RH WIND       PRES   REMARKS
GARY /AIRPORT/ PTSUNNY   25   9  50 NW17G30   30.15F WCI  11
RENSSELAER +   LGT SNOW  27  18  69 W18G25    30.14S WCI  13

$$

LMZ046-743>745-121900-
SOUTHERN LAKE MICHIGAN

STATION/POSITION TIME  TEMP    WIND        PRES    WAVE
                       AIR SEA DIR/SP/G            HT
                 (UTC) (F)     (DEG/KT/KT) (MB)    (FT)
BURNS HARBOR     1700   21     290/ 16/ 21 1020.7S
MICHIGAN CITY    1700   21     270/ 22/ 26   N/A

$$

INZ004-005-014>016-021>024-121900-
NORTH CENTRAL INDIANA

CITY           SKY/WX    TMP DP  RH WIND       PRES   REMARKS
ELKHART        LGT SNOW  21  18  86 W12       30.07F WCI   9
GOSHEN         LGT SNOW  21  14  74 W18       30.06F WCI   6
6HR MIN TEMP:  18; 6HR MAX TEMP:  21; 6HR PCP: TRACE;

PERU/GRISSOM   LGT SNOW  23  18  80 W17G24    30.09F WCI   9
SOUTH BEND     SNOW      20  16  84 NW20      30.09S VSB 1/2 WCI   4
6HR MIN TEMP:  15; 6HR MAX TEMP:  20; 6HR PCP: TRACE;


$$

INZ006>009-017-018-025>027-121900-
NORTHEAST INDIANA

CITY           SKY/WX    TMP DP  RH WIND       PRES   REMARKS
ANGOLA *+      CLOUDY    21  14  73 W15       30.01F WCI   8
FORT WAYNE     CLOUDY    23  14  68 W20       30.07F WCI   8
6HR MIN TEMP:  17; 6HR MAX TEMP:  24;


$$

INZ028-029-035-036-043>045-051>053-121900-
WEST CENTRAL INDIANA

CITY           SKY/WX    TMP DP  RH WIND       PRES   REMARKS
GREENCASTLE +  FLURRIES  25  12  58 W10       30.17F WCI  15
LAFAYETTE      LGT SNOW  24  18  77 W16       30.15F WCI  11
6HR MIN TEMP:  19; 6HR MAX TEMP:  24; 6HR PCP: TRACE;

TERRE HAUTE    CLOUDY    26  18  71 NW15      30.21S WCI  14
6HR MIN TEMP:  21; 6HR MAX TEMP:  26;


$$

INZ030>032-037>040-046>048-054>057-064-065-121900-
CENTRAL INDIANA

CITY           SKY/WX    TMP DP  RH WIND       PRES   REMARKS
ANDERSON       CLOUDY    25  14  63 W12G23    30.12F WCI  14
COLUMBUS       CLOUDY    28  18  64 W9        30.16F WCI  20
GREENWOOD *+   CLOUDY    27  18  69 W13G18    30.15F WCI  16
INDIANAPOLIS   FLURRIES  26  14  60 W17       30.14F WCI  13
6HR MIN TEMP:  20; 6HR MAX TEMP:  26; 6HR PCP: TRACE;

-EAGLE CREEK   FLURRIES  24  16  71 W10       30.14F WCI  14
6HR MIN TEMP:  20; 6HR MAX TEMP:  25; 6HR PCP: TRACE;

KOKOMO *+      CLOUDY    23  16  74 W20       30.11F WCI   8
6HR MIN TEMP:  19; 6HR MAX TEMP:  23;

MT COMFORT *+  CLOUDY    27  14  59 W17       30.13F WCI  14
SHELBYVILLE    CLOUDY    27  14  58 W14       30.13F WCI  16
6HR MIN TEMP:  20; 6HR MAX TEMP:  27;


$$

INZ033-034-041-042-049-050-058-059-121900-
EAST CENTRAL INDIANA

CITY           SKY/WX    TMP DP  RH WIND       PRES   REMARKS
MUNCIE         CLOUDY    25  12  58 W15G21    30.10F WCI  13
6HR MIN TEMP:  19; 6HR MAX TEMP:  25;


$$

INZ060-061-067>069-081>083-085>088-121900-
SOUTHWEST INDIANA

CITY           SKY/WX    TMP DP  RH WIND       PRES   REMARKS
EVANSVILLE     CLOUDY    31  23  72 W5        30.24F WCI  26
6HR MIN TEMP:  26; 6HR MAX TEMP:  31; 6HR PCP:  0.04;

HUNTINGBURG *+ CLOUDY    30  19  64 W10       30.21F WCI  21
6HR MIN TEMP:  27; 6HR MAX TEMP:  30;


$$

INZ062-063-066-070>080-084-089>092-121900-
SOUTH CENTRAL AND SOUTHEAST INDIANA

CITY           SKY/WX    TMP DP  RH WIND       PRES   REMARKS
BLOOMINGTON    CLOUDY    27  17  66 W8G17     30.16F WCI  19
6HR MIN TEMP:  21; 6HR MAX TEMP:  27;

MADISON *+     CLOUDY    30  19  64 W9        30.16F WCI  22
SEYMOUR +      CLOUDY    32  18  55 W14       30.16F WCI  22

$$




USA.gov is the U.S. government's official web portal to all federal, state and local government web resources and services.